Date String (YYYY-MM-DD hh:mm:ss) UTC,Instrument flags,Ambient pressure (hPa),Sample flow (lpm),Bypass flow (lpm),Sample temperature (°C),Ambient temperature (°C),ASC tube jacket temperature (°C),LED temperature (°C),Box temperature (°C),Sample RH (%),Span deviation,Mass concentration (μg/m³),Mass concentration (μg/m³),Mass concentration (μg/m³)
DateTimeUTC,F1_M11,P_M11,Q1_M11,Q2_M11,T1_M11,T2_M11,T3_M11,T4_M11,T5_M11,U1_M11,ZSPAN_M11,X0_M11,X2_M11,X1_M11
2022-06-18 06:00:00,,0823.7,5.00,0.00,29.5,27.4,00.0,38.2,31.2,21.8,0002.8,0018.76,0011.88,0010.18
2022-06-18 06:01:00,,0823.7,4.99,0.00,29.4,27.5,00.0,38.2,31.2,21.9,0003.1,0019.30,0011.82,0010.13
2022-06-18 06:02:00,,0823.6,4.99,0.00,29.4,27.5,00.0,38.2,31.2,21.9,0003.1,0019.37,0011.73,0010.08
2022-06-18 06:03:00,,0823.7,5.01,0.00,29.4,27.7,00.0,38.2,31.2,21.8,0003.1,0019.01,0011.66,0010.05
2022-06-18 06:04:00,,0823.6,5.00,0.00,29.4,27.8,00.0,38.2,31.2,21.8,0003.1,0018.97,0011.66,0010.04
2022-06-18 06:05:00,,0823.4,5.00,0.00,29.4,27.9,00.0,38.2,31.3,21.8,0003.2,0018.89,0011.59,0010.01
2022-06-18 06:06:00,,0823.4,5.00,0.00,29.4,28.0,00.0,38.2,31.3,21.8,0003.1,0018.91,0011.56,0010.00
2022-06-18 06:07:00,,0823.4,4.99,0.00,29.4,28.1,00.0,38.2,31.3,21.8,0003.3,0018.83,0011.49,0009.97
2022-06-18 06:08:00,,0823.4,5.00,0.00,29.4,28.2,00.0,38.2,31.4,21.9,0003.2,0018.36,0011.38,0009.93
2022-06-18 06:09:00,,0823.4,5.00,0.00,29.4,28.3,00.0,38.3,31.4,22.0,0003.0,0017.34,0011.30,0009.88
2022-06-18 06:10:00,,0823.3,5.01,0.00,29.5,28.4,00.0,38.3,31.4,22.0,0002.9,0016.98,0011.24,0009.84
2022-06-18 06:11:00,,0823.3,4.99,0.00,29.5,28.5,00.0,38.3,31.4,21.9,0002.4,0017.08,0011.20,0009.80
2022-06-18 06:12:00,,0823.4,5.00,0.00,29.5,28.5,00.0,38.3,31.5,21.8,0002.0,0016.08,0011.18,0009.77
2022-06-18 06:13:00,,0823.4,5.01,0.00,29.5,28.6,00.0,38.3,31.5,21.8,0002.4,0015.77,0011.11,0009.73
2022-06-18 06:14:00,,0823.4,5.00,0.00,29.6,28.6,00.0,38.3,31.5,21.8,0002.7,0015.66,0011.04,0009.68
2022-06-18 06:15:00,,0823.4,5.00,0.00,29.6,28.7,00.0,38.3,31.6,21.9,0002.5,0015.45,0010.96,0009.64
2022-06-18 06:16:00,,0823.3,5.00,0.00,29.6,28.6,00.0,38.3,31.6,21.9,0002.6,0015.29,0010.87,0009.61
2022-06-18 06:17:00,,0823.3,5.01,0.00,29.6,27.9,00.0,38.3,31.4,22.0,0002.7,0015.26,0010.87,0009.58
2022-06-18 06:18:00,,0823.3,4.99,0.00,29.5,27.4,00.0,38.2,31.2,22.1,0002.6,0015.38,0010.90,0009.54
2022-06-18 06:19:00,,0823.3,4.99,0.00,29.5,27.3,00.0,38.2,31.2,22.3,0002.3,0015.21,0010.87,0009.52
2022-06-18 06:20:00,,0823.3,5.01,0.00,29.4,27.3,00.0,38.2,31.1,22.4,0002.4,0015.27,0010.86,0009.51
2022-06-18 06:21:00,,0823.3,5.01,0.00,29.4,27.4,00.0,38.2,31.1,22.5,0002.5,0015.23,0010.84,0009.50
2022-06-18 06:22:00,,0823.3,5.00,0.00,29.4,27.6,00.0,38.2,31.2,22.5,0002.5,0014.86,0010.75,0009.47
2022-06-18 06:23:00,,0823.3,5.00,0.00,29.4,27.7,00.0,38.2,31.2,22.5,0002.6,0014.80,0010.73,0009.45
2022-06-18 06:24:00,,0823.3,4.99,0.00,29.4,27.9,00.0,38.2,31.2,22.5,0002.5,0014.74,0010.70,0009.43
2022-06-18 06:25:00,,0823.3,5.00,0.00,29.4,28.0,00.0,38.2,31.3,22.5,0002.5,0014.73,0010.62,0009.40
2022-06-18 06:26:00,,0823.4,5.00,0.00,29.4,28.1,00.0,38.2,31.3,22.4,0003.0,0014.71,0010.56,0009.36
2022-06-18 06:27:00,,0823.4,5.00,0.00,29.4,28.2,00.0,38.2,31.3,22.3,0003.1,0014.79,0010.58,0009.33
2022-06-18 06:28:00,,0823.4,4.99,0.00,29.4,28.3,00.0,38.2,31.4,22.3,0003.0,0014.62,0010.49,0009.29
2022-06-18 06:29:00,,0823.4,5.00,0.00,29.4,28.4,00.0,38.3,31.4,22.2,0002.7,0014.64,0010.39,0009.25
2022-06-18 06:30:00,,0823.4,5.00,0.00,29.5,28.4,00.0,38.3,31.4,22.1,0002.7,0015.12,0010.36,0009.21
2022-06-18 06:31:00,,0823.4,5.00,0.00,29.5,28.5,00.0,38.3,31.4,22.0,0002.8,0015.20,0010.38,0009.17
2022-06-18 06:32:00,,0823.4,5.00,0.00,29.5,28.6,00.0,38.3,31.5,21.9,0002.9,0015.03,0010.30,0009.12
2022-06-18 06:33:00,,0823.5,5.01,0.00,29.5,28.6,00.0,38.3,31.5,21.8,0003.0,0015.12,0010.33,0009.09
2022-06-18 06:34:00,,0823.5,5.00,0.00,29.6,28.7,00.0,38.3,31.5,21.7,0002.9,0014.95,0010.27,0009.05
2022-06-18 06:35:00,,0823.5,5.00,0.00,29.6,28.7,00.0,38.3,31.6,21.7,0002.6,0014.87,0010.21,0009.01
2022-06-18 06:36:00,,0823.4,5.00,0.00,29.6,28.8,00.0,38.4,31.6,21.6,0002.8,0014.98,0010.26,0009.00
2022-06-18 06:37:00,,0823.4,4.99,0.00,29.7,28.6,00.0,38.4,31.6,21.6,0002.9,0015.00,0010.30,0008.99
2022-06-18 06:38:00,,0823.4,4.99,0.00,29.6,27.8,00.0,38.3,31.4,21.6,0002.9,0015.07,0010.31,0008.98
2022-06-18 06:39:00,,0823.3,5.00,0.00,29.5,27.4,00.0,38.3,31.3,21.6,0003.1,0015.32,0010.35,0008.96
2022-06-18 06:40:00,,0823.3,5.00,0.00,29.5,27.3,00.0,38.3,31.2,21.6,0003.2,0015.34,0010.36,0008.95
2022-06-18 06:41:00,,0823.3,5.01,0.00,29.4,27.4,00.0,38.3,31.2,21.6,0003.5,0014.91,0010.37,0008.93
2022-06-18 06:42:00,,0823.3,5.00,0.00,29.4,27.5,00.0,38.3,31.2,21.6,0003.7,0014.77,0010.32,0008.91
2022-06-18 06:43:00,,0823.4,5.00,0.00,29.4,27.7,00.0,38.3,31.2,21.6,0003.5,0014.75,0010.30,0008.89
2022-06-18 06:44:00,,0823.3,5.00,0.00,29.4,27.8,00.0,38.3,31.3,21.6,0003.4,0014.73,0010.27,0008.86
2022-06-18 06:45:00,,0823.3,5.00,0.00,29.4,27.9,00.0,38.3,31.3,21.5,0003.6,0014.73,0010.27,0008.86
2022-06-18 06:46:00,,0823.3,5.00,0.00,29.4,28.1,00.0,38.3,31.3,21.5,0003.6,0014.80,0010.30,0008.87
2022-06-18 06:47:00,,0823.4,5.01,0.00,29.4,28.2,00.0,38.3,31.3,21.4,0003.4,0014.70,0010.28,0008.87
2022-06-18 06:48:00,,0823.4,4.99,0.00,29.5,28.3,00.0,38.3,31.4,21.4,0003.2,0015.04,0010.31,0008.88
2022-06-18 06:49:00,,0823.4,4.99,0.00,29.5,28.4,00.0,38.3,31.4,21.4,0003.0,0015.53,0010.35,0008.90
2022-06-18 06:50:00,,0823.4,5.00,0.00,29.5,28.5,00.0,38.3,31.4,21.4,0002.4,0015.63,0010.36,0008.94
2022-06-18 06:51:00,,0823.4,5.01,0.00,29.5,28.5,00.0,38.3,31.5,21.4,0002.2,0015.69,0010.43,0008.96
2022-06-18 06:52:00,,0823.4,5.01,0.00,29.6,28.6,00.0,38.3,31.5,21.4,0001.9,0015.85,0010.50,0009.02
2022-06-18 06:53:00,,0823.4,4.99,0.00,29.6,28.7,00.0,38.3,31.5,21.5,0001.8,0016.28,0010.62,0009.09
2022-06-18 06:54:00,,0823.4,4.99,0.00,29.6,28.7,00.0,38.4,31.6,21.5,0001.4,0016.58,0010.73,0009.18
2022-06-18 06:55:00,,0823.4,5.00,0.00,29.6,28.8,00.0,38.4,31.6,21.6,0001.4,0016.98,0010.77,0009.24
2022-06-18 06:56:00,,0823.4,5.00,0.00,29.7,28.8,00.0,38.4,31.6,21.6,0001.6,0017.05,0010.82,0009.27
2022-06-18 06:57:00,,0823.3,5.00,0.00,29.7,28.9,00.0,38.4,31.7,21.6,0001.7,0017.17,0010.89,0009.31
2022-06-18 06:58:00,,0823.4,5.01,0.00,29.7,28.5,00.0,38.4,31.6,21.6,0001.8,0017.74,0011.01,0009.36
2022-06-18 06:59:00,,0823.3,5.00,0.00,29.6,27.7,00.0,38.3,31.4,21.7,0001.7,0017.77,0011.03,0009.38
